Location: Madrid
(40.4167°N, 3.7036°W)
Time: 16:31:26
(UTC+00:00)

ISS - Pass Details

Date: 07 September 2024
Orbit: 414 x 424 km, 51.6° (Epoch: 15 September)

Event Time Altitude Azimuth Distance (km) Brightness Sun altitude
Exits shadow 04:13:21 35° 309° (NW) 705 -2.9 -18.1°
Maximum altitude 04:14:40 87° 39° (NE) 431 -3.8 -17.9°
Drops below altitude 10° 04:18:04 10° 127° (SE) 1,513 -0.6 -17.3°
Sets 04:20:10 0° 127° (SE) 2,375 0.5 -16.9°
